Total_Precipitation_Accumulation
0.63 0.67 0.67 0.63 0.60 0.63 0.74 0.85 1.26 1.70 2.25 2.71 2.93 2.92 2.96 2.81 2.59 2.22 2.12 2.22 2.21 2.13 2.11 2.03 2.02 2.21 2.37 2.41 2.38 2.62 2.67 2.55 2.37 2.17 2.15 2.16 2.08 2.01 1.97 1.91 1.80 1.85 1.91 1.83
0.67 0.56 0.66 0.70 0.72 0.81 0.91 0.98 1.23 1.78 2.51 2.83 2.97 2.91 2.91 2.81 2.64 2.56 2.47 2.38 2.35 2.34 2.31 2.24 2.14 2.22 2.43 2.47 2.42 2.56 2.56 2.62 2.65 2.57 2.56 2.43 2.23 2.12 2.09 2.06 2.00 1.90 1.85 1.77
1.06 0.69 0.93 1.38 1.06 1.01 1.20 1.29 1.57 2.22 2.55 2.49 2.59 2.81 2.99 3.04 2.92 2.83 2.79 2.65 2.61 2.65 2.60 2.60 2.56 2.50 2.52 2.48 2.44 2.47 2.57 2.65 2.66 2.64 2.57 2.49 2.27 2.22 2.26 2.19 2.09 1.96 1.82 1.75
1.26 1.37 2.08 1.88 1.15 1.11 1.36 1.58 1.78 2.06 2.16 2.20 2.23 2.36 2.50 2.64 2.79 2.77 2.71 2.64 2.67 2.79 2.77 2.77 2.67 2.62 2.54 2.54 2.62 2.70 2.74 2.72 2.61 2.49 2.47 2.42 2.41 2.39 2.32 2.23 2.12 2.00 1.86 1.72
1.50 1.88 2.12 1.91 1.24 1.28 1.78 2.36 1.98 1.97 1.86 1.69 1.68 1.98 2.49 2.53 2.55 2.72 2.74 2.70 2.67 2.65 2.65 2.71 2.64 2.57 2.53 2.54 2.59 2.64 2.66 2.54 2.45 2.46 2.48 2.31 2.30 2.29 2.25 2.16 2.03 1.91 1.80 1.70
1.63 2.23 2.63 2.38 1.30 1.08 1.67 2.96 2.25 1.95 1.92 1.78 1.88 2.43 2.71 2.50 2.46 2.44 2.42 2.46 2.37 2.22 2.17 2.37 2.53 2.53 2.44 2.39 2.41 2.40 2.25 2.08 2.01 2.12 2.15 2.00 1.90 1.88 1.92 1.96 1.95 1.85 1.72 1.65
1.82 2.39 2.60 1.60 0.99 1.20 2.55 3.15 2.37 1.97 1.87 1.84 2.14 2.40 2.17 1.95 2.06 2.10 2.06 1.98 1.92 1.89 1.97 2.11 2.16 2.22 2.26 2.18 2.23 2.15 1.97 1.87 1.89 1.87 1.85 1.81 1.82 1.86 1.80 1.73 1.76 1.79 1.76 1.66
1.97 2.59 2.73 1.39 1.19 1.91 2.35 1.95 1.86 1.80 1.74 1.70 1.67 1.59 1.58 1.63 1.65 1.66 1.68 1.65 1.60 1.72 1.83 1.88 1.82 1.83 1.95 1.97 1.99 1.91 1.82 1.74 1.79 1.77 1.66 1.73 1.90 1.84 1.79 1.79 1.76 1.72 1.73 1.62
2.12 2.53 2.17 1.47 1.44 1.59 1.62 1.61 1.51 1.49 1.44 1.39 1.38 1.21 1.26 1.45 1.38 1.31 1.33 1.40 1.46 1.51 1.64 1.76 1.76 1.79 1.84 1.82 1.74 1.75 1.80 1.73 1.66 1.59 1.68 1.76 1.88 1.83 1.74 1.70 1.58 1.45 1.43 1.38
1.78 1.88 1.66 1.48 1.42 1.35 1.24 1.23 1.16 1.25 1.41 1.35 1.31 1.31 1.35 1.39 1.31 1.23 1.27 1.29 1.37 1.42 1.47 1.62 1.60 1.61 1.73 1.67 1.63 1.77 1.87 1.79 1.66 1.57 1.55 1.60 1.67 1.69 1.59 1.51 1.42 1.32 1.25 1.20
1.79 1.73 1.66 1.65 1.42 1.28 1.18 1.08 1.07 1.16 1.24 1.30 1.33 1.38 1.37 1.34 1.30 1.31 1.42 1.44 1.42 1.45 1.45 1.43 1.43 1.45 1.45 1.49 1.60 1.79 1.76 1.62 1.50 1.39 1.35 1.38 1.39 1.38 1.37 1.26 1.22 1.18 1.08 1.01
1.88 1.63 1.66 1.78 1.50 1.23 1.19 1.13 1.15 1.17 1.23 1.35 1.40 1.49 1.43 1.35 1.32 1.34 1.39 1.39 1.44 1.39 1.29 1.29 1.37 1.41 1.33 1.27 1.40 1.66 1.66 1.42 1.27 1.18 1.16 1.10 1.08 1.09 1.09 1.08 1.07 1.01 1.01 0.96
1.35 1.25 1.22 1.17 1.07 1.02 1.00 1.01 1.07 1.08 1.18 1.33 1.38 1.41 1.33 1.34 1.34 1.41 1.42 1.37 1.38 1.35 1.26 1.17 1.21 1.27 1.26 1.19 1.21 1.33 1.44 1.26 1.07 1.01 1.02 1.01 1.00 1.10 1.14 1.00 0.96 0.93 0.96 0.94
1.01 1.03 1.11 1.09 1.08 0.99 0.99 1.02 1.05 1.03 1.07 1.15 1.27 1.33 1.26 1.25 1.31 1.36 1.37 1.26 1.15 1.14 1.19 1.16 1.14 1.08 1.00 0.97 1.09 1.14 1.10 1.05 0.99 0.98 0.94 0.90 0.89 0.98 1.08 1.14 1.11 1.00 0.95 0.96
0.93 0.96 1.09 1.07 1.03 0.95 1.00 1.07 1.18 1.20 1.14 1.13 1.08 1.11 1.11 1.12 1.19 1.23 1.20 1.10 1.09 1.12 1.15 1.10 1.09 1.11 0.92 0.84 0.92 0.96 0.92 0.91 0.93 0.94 0.87 0.83 0.79 0.82 0.87 0.95 1.06 1.09 1.03 1.03
0.93 0.95 1.00 0.99 1.03 1.02 1.04 1.15 1.29 1.28 1.14 1.17 1.17 1.19 1.13 1.12 1.09 1.10 1.10 1.11 1.13 1.12 1.10 1.10 1.07 0.99 0.87 0.84 0.91 0.91 0.84 0.84 0.87 0.86 0.86 0.89 0.86 0.85 0.90 0.96 1.02 1.07 1.10 1.09
1.05 1.13 1.10 1.04 1.01 1.03 1.03 1.00 1.08 1.18 1.11 1.08 1.09 1.14 1.11 1.12 1.11 1.16 1.22 1.17 1.12 1.06 1.01 1.02 0.98 0.87 0.81 0.80 0.85 0.86 0.80 0.79 0.81 0.77 0.80 0.86 0.92 1.00 1.04 1.08 1.16 1.27 1.30 1.29
1.05 1.06 1.00 0.98 0.98 0.98 0.97 0.91 0.85 0.92 1.02 1.01 1.02 1.01 1.04 1.09 1.15 1.18 1.22 1.09 1.04 1.04 0.95 0.87 0.84 0.79 0.74 0.75 0.84 0.86 0.92 0.90 0.82 0.77 0.76 0.77 0.81 0.92 1.07 1.19 1.28 1.33 1.35 1.33
0.90 0.87 0.85 0.85 0.92 0.96 0.90 0.86 0.79 0.76 0.82 0.89 0.90 0.94 1.01 1.07 1.09 1.13 1.11 1.00 1.01 1.03 0.94 0.85 0.83 0.76 0.75 0.76 0.79 0.85 0.91 0.91 0.90 0.90 0.84 0.84 0.82 0.86 1.00 1.11 1.17 1.30 1.31 1.22
0.79 0.77 0.80 0.82 0.86 0.87 0.87 0.80 0.73 0.72 0.73 0.84 0.87 0.91 0.93 0.95 0.98 0.98 0.99 0.98 0.95 0.93 0.86 0.79 0.73 0.74 0.80 0.83 0.85 0.86 0.92 0.90 0.95 1.00 0.96 0.92 0.88 0.87 0.94 0.99 1.01 1.10 1.20 1.21
0.78 0.74 0.75 0.74 0.80 0.81 0.79 0.74 0.70 0.71 0.74 0.83 0.89 0.92 0.88 0.86 0.88 0.90 0.96 0.98 0.90 0.81 0.75 0.73 0.68 0.71 0.77 0.82 0.88 0.88 0.94 0.98 1.01 1.01 1.01 0.98 0.93 0.89 0.90 0.90 0.92 0.99 1.06 1.06
0.82 0.80 0.77 0.72 0.73 0.80 0.78 0.69 0.69 0.74 0.77 0.81 0.82 0.83 0.88 0.90 0.90 0.95 0.97 1.02 0.96 0.85 0.71 0.65 0.63 0.69 0.73 0.73 0.70 0.71 0.76 0.87 0.98 1.03 1.06 1.04 0.99 0.96 0.94 0.93 0.92 0.92 0.93 0.94
0.78 0.78 0.81 0.83 0.87 0.90 0.81 0.68 0.69 0.76 0.77 0.79 0.82 0.92 1.01 1.01 0.92 0.93 0.96 0.88 0.86 0.83 0.70 0.64 0.67 0.70 0.67 0.60 0.59 0.63 0.69 0.74 0.80 0.87 0.93 0.96 0.95 0.90 0.86 0.88 0.89 0.89 0.85 0.87
0.83 0.80 0.79 0.85 0.92 0.87 0.85 0.79 0.75 0.74 0.75 0.75 0.81 0.92 0.97 0.93 0.81 0.77 0.83 0.83 0.81 0.76 0.71 0.72 0.68 0.62 0.59 0.53 0.57 0.61 0.63 0.68 0.71 0.76 0.79 0.81 0.85 0.85 0.84 0.83 0.86 0.84 0.83 0.83
0.82 0.83 0.81 0.87 0.94 0.88 0.84 0.78 0.72 0.71 0.76 0.80 0.80 0.83 0.80 0.76 0.75 0.68 0.62 0.62 0.65 0.63 0.63 0.64 0.64 0.62 0.55 0.52 0.57 0.63 0.64 0.64 0.68 0.71 0.74 0.76 0.77 0.80 0.85 0.87 0.91 0.90 0.90 0.91
0.95 1.00 0.99 0.99 0.95 0.87 0.79 0.74 0.76 0.78 0.82 0.86 0.84 0.80 0.73 0.68 0.69 0.66 0.58 0.52 0.55 0.56 0.53 0.54 0.58 0.60 0.56 0.56 0.60 0.63 0.68 0.70 0.70 0.69 0.69 0.73 0.74 0.77 0.80 0.89 0.94 0.96 0.95 0.88
1.04 1.03 1.02 0.99 0.90 0.81 0.79 0.76 0.78 0.81 0.85 0.88 0.88 0.80 0.74 0.69 0.68 0.66 0.58 0.53 0.52 0.54 0.52 0.53 0.54 0.55 0.56 0.58 0.61 0.60 0.62 0.70 0.75 0.74 0.74 0.76 0.79 0.83 0.86 0.87 0.90 0.93 0.92 0.86